GFSCGP_sfc_dewp_159.txt.gz
Dewpoint
27 30 26 22 23 21 20 17 13 15 14 15 13 15 16 18 20 18 17 21 22 26 33 34 34 39 47 59 71 75 74 74 74 72 68 67 66 67 65 65 70 70 69 69
27 25 27 25 24 26 20 19 19 19 20 19 17 13 16 21 20 20 23 20 22 25 27 32 33 39 51 66 72 74 73 74 73 71 70 67 67 65 65 68 70 70 70 70
26 26 25 27 31 27 23 24 22 22 24 21 19 15 19 18 20 20 23 26 25 26 30 32 32 40 44 66 74 73 73 74 73 72 72 72 70 68 66 69 68 69 70 70
27 27 25 25 24 25 27 25 24 25 22 20 18 12 15 24 22 21 21 24 26 28 30 33 32 39 53 68 73 72 74 74 73 75 72 73 67 67 65 69 71 71 73 72
30 29 29 29 25 26 27 28 27 29 24 20 17 13 14 15 21 22 26 27 27 29 31 30 32 41 61 71 72 72 74 73 74 74 73 71 69 70 70 69 72 72 71 70
29 30 28 28 27 29 29 27 28 24 20 24 21 12 12 14 15 20 22 24 27 27 29 32 33 47 64 71 71 72 72 72 73 73 73 74 73 70 68 69 68 68 69 69
30 28 29 28 27 27 28 27 29 27 26 22 18 13 14 17 15 16 17 18 24 26 29 31 32 55 62 70 70 71 71 71 71 72 72 72 71 71 71 70 67 68 67 66
33 27 26 27 28 29 27 23 26 20 19 23 16 13 15 15 18 18 23 24 24 25 28 31 41 54 65 69 69 70 71 70 71 71 71 70 71 68 68 69 65 64 64 65
32 32 27 27 26 28 30 31 26 26 24 22 15 18 17 13 17 17 23 24 22 26 30 33 45 54 66 67 69 69 70 70 70 71 71 72 71 70 68 68 67 63 64 62
37 32 27 28 33 28 28 30 32 28 23 16 11 11 8 17 16 20 26 27 28 27 29 34 47 61 65 68 68 70 70 71 71 70 69 69 69 69 67 65 64 63 62 61
38 37 26 30 32 30 33 37 34 31 27 21 18 23 29 22 17 21 26 28 29 27 30 34 49 60 67 67 67 69 71 71 69 68 69 68 68 66 64 62 62 61 60 58
36 37 31 26 26 28 32 32 32 30 26 22 21 24 32 36 21 20 19 23 26 30 31 37 50 64 66 67 67 69 69 68 68 67 67 66 64 63 61 60 60 59 58 56
38 35 30 27 30 29 30 31 31 32 31 31 29 30 37 35 28 21 21 25 29 32 32 46 62 65 65 66 67 67 67 66 65 65 64 63 62 61 61 59 58 57 55 54
41 34 31 27 27 36 36 32 31 33 33 26 23 33 33 34 38 36 26 27 30 33 40 56 64 64 64 64 63 63 63 63 63 61 60 61 60 59 58 57 56 55 53 52
38 33 34 34 34 32 32 31 33 31 30 31 28 35 36 36 37 38 44 37 32 32 47 61 61 61 62 62 61 60 61 62 62 59 58 58 57 56 55 54 53 52 51 50
38 33 34 31 29 30 31 30 30 30 31 31 31 32 41 40 39 41 44 44 34 56 59 59 58 58 59 59 58 58 58 59 59 57 55 55 54 53 53 53 52 51 51 51
33 35 34 29 32 35 34 33 31 29 30 31 31 36 38 38 42 47 49 49 55 56 56 56 56 56 57 57 57 56 56 57 56 54 53 52 51 51 50 51 51 51 52 52
33 32 35 32 33 29 36 38 31 30 32 33 40 40 39 43 45 49 54 56 55 54 54 54 54 54 56 56 56 56 56 55 54 53 52 50 49 49 49 50 51 52 52 52
38 34 34 33 32 35 35 38 39 38 36 40 40 40 41 46 47 46 52 53 53 52 52 52 53 54 55 56 57 57 55 54 52 50 49 48 47 48 49 50 51 52 51 51
35 39 34 35 31 28 34 39 41 40 38 41 41 42 44 46 41 42 48 49 49 50 51 51 52 53 54 55 57 55 52 50 49 47 47 47 47 49 49 50 51 51 50 48
32 33 34 35 34 34 36 39 41 35 38 44 46 46 46 43 45 47 47 47 49 49 50 50 51 52 53 55 54 52 50 47 47 47 47 48 49 49 50 50 50 49 48 47
32 30 31 32 32 31 39 38 35 39 42 47 46 45 44 45 46 46 46 47 48 49 49 50 51 52 53 52 52 50 50 47 47 47 47 48 48 46 47 49 49 49 49 48
32 33 30 33 35 39 39 38 41 43 45 45 45 45 44 44 44 44 44 45 47 48 48 50 50 50 50 51 49 48 47 47 46 46 47 47 47 47 47 47 47 44 45 42
35 37 34 34 37 37 37 40 41 46 45 45 45 44 43 42 42 43 44 44 44 45 46 48 49 47 47 46 46 46 46 47 46 46 46 45 44 43 43 40 40 38 39 40
35 35 34 35 37 37 38 39 42 44 44 44 44 44 43 43 42 42 43 44 45 44 44 46 46 45 45 45 45 45 45 45 44 44 42 42 40 36 32 30 34 30 29 32
34 33 33 33 36 36 37 40 42 42 42 42 42 43 44 43 43 42 42 43 43 44 44 46 45 45 43 43 43 43 43 43 44 44 40 38 35 31 28 25 23 31 31 30

GFSCGP_sfc_dewp_162.txt.gz
Dewpoint
25 25 30 28 26 26 26 20 18 15 20 15 17 17 17 13 16 18 20 22 25 25 33 39 40 42 53 56 73 74 73 74 74 73 72 70 69 71 70 72 72 72 72 72
25 26 28 28 27 25 21 21 19 17 16 17 18 20 17 17 17 19 23 25 24 27 29 33 40 44 49 59 73 74 72 73 74 75 72 71 69 69 69 71 73 73 72 73
22 22 24 27 27 28 24 22 23 19 19 20 21 20 22 21 16 18 22 24 26 25 30 33 36 47 46 53 72 74 74 74 74 73 74 73 71 71 70 71 72 73 72 72
24 24 24 26 28 23 24 24 24 20 22 25 24 23 24 23 20 17 21 25 24 27 28 33 35 45 50 51 72 74 73 73 73 74 73 73 69 67 69 70 71 72 73 70
28 27 28 27 28 27 25 28 25 24 27 27 25 20 19 18 18 19 21 26 24 29 27 29 32 39 45 69 73 73 73 72 73 73 72 73 70 71 69 72 73 69 68 67
28 29 28 26 26 27 27 29 26 26 24 26 25 20 20 19 19 18 20 26 24 26 29 33 36 39 43 71 73 74 73 72 72 72 71 70 70 71 70 71 70 68 67 67
30 27 28 30 26 25 30 32 27 26 27 24 23 24 21 22 19 20 20 26 25 29 30 32 33 38 47 71 72 72 73 71 71 72 71 70 70 71 71 70 69 67 66 67
34 29 29 30 30 30 29 31 28 19 19 23 32 29 25 24 19 18 20 23 27 31 30 32 33 37 65 71 72 71 71 71 70 71 71 72 72 71 70 71 67 66 66 65
30 28 31 29 29 37 32 31 31 30 30 26 21 17 22 24 19 20 20 23 25 28 31 31 34 39 66 71 70 71 71 70 70 71 72 72 71 72 69 67 67 66 64 62
35 31 27 26 29 28 27 29 33 34 24 18 14 17 22 25 21 18 19 21 25 27 29 30 34 41 68 70 71 71 70 69 71 71 71 71 69 67 67 65 64 63 61 60
38 36 28 30 28 28 30 34 31 34 30 24 21 22 27 29 28 32 21 25 28 29 26 30 35 54 69 70 70 69 70 71 70 70 69 67 66 65 64 63 62 61 60 58
37 36 33 27 27 26 26 31 35 34 30 25 28 30 33 34 33 33 33 31 33 28 27 33 43 66 68 69 68 68 69 69 69 68 67 65 64 63 63 61 60 59 58 57
38 35 29 25 28 37 30 28 28 33 35 31 28 31 33 34 36 37 37 36 36 38 33 35 61 65 63 66 67 68 69 68 68 66 64 62 62 61 60 60 59 58 57 56
42 33 31 27 27 31 34 33 36 34 33 29 29 32 35 35 37 38 39 40 32 35 42 62 59 57 57 63 66 67 66 65 64 63 61 60 60 59 59 58 57 56 55 54
38 33 33 34 32 31 30 31 31 31 29 30 30 36 37 36 38 38 39 40 41 36 61 63 61 56 58 62 63 63 63 63 61 59 58 58 58 58 57 55 55 54 53 52
39 33 34 31 28 31 29 28 29 28 28 29 30 30 39 37 39 37 37 43 46 51 60 61 61 61 60 62 62 60 60 60 58 57 56 56 55 55 54 54 53 53 53 52
32 33 34 27 30 33 31 34 31 30 29 29 30 32 39 38 41 40 44 48 52 58 59 59 59 59 59 60 61 59 58 58 56 55 54 54 53 53 52 53 53 53 53 53
33 32 34 31 33 30 36 37 38 37 31 33 35 39 37 41 45 47 50 50 52 56 57 58 57 57 58 59 58 58 57 55 54 53 52 51 51 51 52 53 53 54 54 53
40 34 32 32 32 35 33 35 37 37 36 41 39 38 38 44 47 46 51 55 56 56 56 57 57 57 57 57 57 55 54 54 53 51 51 50 51 51 52 52 53 53 51 50
33 39 34 34 33 28 33 35 38 40 34 39 40 42 43 45 42 43 49 52 53 54 56 56 57 57 57 57 56 54 53 51 50 49 49 50 51 51 52 53 52 52 50 47
31 30 33 33 35 34 36 37 39 34 35 38 41 45 46 44 45 47 50 51 53 53 55 56 57 57 57 57 53 52 51 49 49 50 50 51 52 52 52 52 51 50 48 48
32 30 30 30 30 29 38 35 32 37 39 41 45 46 45 45 46 47 49 50 51 52 53 54 54 55 54 53 52 50 50 50 50 50 50 50 50 49 50 51 51 51 50 49
32 33 30 31 33 38 38 37 40 42 45 45 45 45 45 44 45 47 48 50 50 51 52 52 51 50 50 51 51 49 50 49 49 49 49 49 50 49 50 50 51 49 52 48
37 37 33 34 37 36 38 39 40 44 45 45 44 45 45 44 44 46 47 48 49 50 50 50 49 48 48 50 49 49 49 49 49 49 48 44 39 39 39 35 33 33 38 37
35 35 34 35 36 37 38 38 41 43 44 43 44 44 45 44 44 45 46 47 48 49 49 48 47 47 48 48 48 49 48 48 46 42 39 36 33 30 27 29 30 24 28 31
34 32 33 32 35 36 37 39 42 41 42 43 43 43 44 45 45 45 46 47 47 47 47 46 47 48 47 47 47 46 45 45 42 39 35 32 29 26 24 23 24 32 31 30

GFSCGP_sfc_dewp_165.txt.gz
Dewpoint
23 24 25 28 30 32 33 31 29 27 22 22 19 19 18 18 21 19 13 14 16 22 21 23 36 38 48 71 71 71 68 71 71 70 67 70 66 70 69 69 69 70 68 68
23 21 25 28 29 32 32 31 27 26 21 20 20 20 22 21 21 22 19 18 16 18 23 23 27 42 44 71 72 72 72 72 72 71 69 70 68 68 70 69 70 70 69 69
22 23 23 23 27 29 28 27 25 24 23 23 21 20 22 23 23 22 21 19 20 19 19 24 21 35 44 68 71 71 71 71 72 72 72 71 69 70 69 70 70 71 70 70
24 26 26 26 26 26 27 28 26 27 26 24 28 23 24 25 24 25 22 20 16 20 24 21 23 26 43 58 71 70 71 70 71 72 71 70 66 67 68 69 70 69 68 68
26 26 26 26 26 27 26 29 30 27 26 22 22 27 22 25 24 25 24 22 16 16 23 23 25 23 40 59 71 71 71 70 70 71 70 70 68 69 69 69 67 67 67 67
29 31 29 28 28 28 26 25 29 28 26 24 22 25 22 23 22 21 23 21 20 16 18 22 27 26 42 59 71 71 71 71 71 71 70 70 69 70 70 67 66 66 66 66
33 32 32 30 29 32 33 32 28 26 23 21 22 28 28 32 32 28 23 22 21 19 18 23 26 27 43 68 71 71 71 71 71 69 69 70 70 71 69 67 66 66 64 65
29 30 31 30 32 36 37 32 29 23 21 23 29 30 30 32 31 30 29 23 20 19 17 23 29 32 59 69 70 71 70 70 70 69 69 69 70 70 70 67 65 66 65 63
34 31 34 30 28 30 31 32 36 33 34 30 26 25 26 28 30 27 26 24 18 20 21 28 29 40 65 69 70 70 70 70 69 69 69 68 69 69 68 66 65 63 62 60
37 31 30 29 30 30 30 32 30 33 26 23 20 20 28 30 29 30 30 21 17 17 24 26 28 33 67 69 71 71 70 69 69 69 70 69 67 67 66 65 62 60 59 59
37 35 30 32 29 26 30 31 34 34 31 26 21 22 32 32 35 37 37 25 26 28 28 26 24 29 66 68 69 70 69 68 68 68 68 66 66 65 63 61 59 58 57 56
36 36 29 26 28 28 28 27 30 31 31 32 32 31 36 37 36 39 40 32 37 39 39 27 23 29 64 66 70 69 68 68 68 67 66 65 62 62 59 58 57 56 55 54
38 34 28 27 31 36 35 34 32 36 36 32 29 28 34 36 37 39 41 42 44 44 41 31 24 47 63 67 68 68 68 67 66 65 64 62 61 59 58 56 55 55 54 53
43 33 32 26 27 30 30 31 31 34 32 32 32 31 33 36 37 37 38 45 44 43 43 46 39 60 65 67 67 66 67 66 65 63 61 59 59 57 55 55 54 53 52 48
39 32 33 33 32 32 32 31 31 30 31 30 29 30 32 36 37 37 37 43 45 43 50 56 59 61 62 63 64 66 66 64 62 60 59 59 57 56 53 53 52 50 48 45
39 32 35 30 28 30 32 34 35 29 31 30 29 29 33 36 38 39 44 44 45 49 55 56 59 61 61 60 60 59 60 60 59 57 57 55 53 53 52 51 50 48 47 44
32 32 32 26 29 30 32 36 38 36 35 34 30 31 34 37 42 44 47 48 49 50 57 56 57 59 59 59 59 59 59 59 58 56 54 52 51 51 51 51 50 47 43 40
32 32 33 28 30 23 35 33 35 36 38 40 39 41 40 44 44 47 49 49 50 52 57 58 59 59 59 59 59 59 58 57 56 54 51 50 51 51 51 50 49 48 45 39
39 34 31 29 29 34 34 33 34 35 35 39 38 39 40 44 44 44 49 53 54 56 57 58 59 59 58 58 58 57 56 55 54 51 50 51 51 51 51 50 49 47 45 44
35 37 33 31 29 28 32 35 36 36 34 37 38 38 38 41 37 43 48 51 54 56 57 57 58 57 57 57 57 56 54 53 51 50 50 51 51 50 49 48 45 43 39 37
31 31 30 31 31 33 36 37 37 32 33 37 38 38 39 43 44 47 51 53 55 56 57 57 57 57 57 57 56 54 52 51 50 50 51 51 50 49 48 46 44 43 38 35
31 27 29 28 29 24 37 35 31 35 38 42 44 46 43 45 47 49 50 52 54 56 57 57 56 55 55 53 52 50 51 51 50 50 50 49 48 46 46 45 44 44 43 42
30 32 29 29 30 36 37 38 39 40 42 43 44 45 46 46 47 48 50 52 54 55 54 53 51 50 51 52 51 50 50 48 48 48 48 46 39 36 36 37 40 46 44 35
37 37 32 33 36 36 37 39 39 41 44 44 45 44 45 45 46 48 50 51 52 51 50 50 49 49 49 50 49 49 48 47 39 37 35 34 32 29 27 28 30 31 30 27
34 34 33 34 35 36 38 37 39 42 44 43 44 45 45 45 46 48 49 50 49 49 48 48 48 48 48 48 48 44 40 38 35 32 29 26 23 22 24 26 25 24 28 23
33 32 31 31 35 35 35 38 40 42 43 43 43 44 46 46 46 47 48 49 48 47 47 47 48 47 47 46 42 40 37 35 32 29 26 24 21 19 18 19 21 32 32 32

GFSCGP_sfc_dewp_168.txt.gz
Dewpoint
24 21 21 25 27 28 29 30 32 33 33 31 28 24 20 21 21 21 21 22 19 16 16 22 25 45 69 68 65 68 69 69 71 69 69 66 65 67 68 68 68 68 68 68
23 21 23 24 25 27 29 29 31 32 31 28 25 21 23 22 22 22 22 22 21 19 19 20 26 43 69 69 68 69 66 64 70 71 71 70 68 68 68 68 69 68 68 69
22 22 25 26 26 26 28 30 30 28 28 27 26 25 23 24 25 25 24 24 24 21 21 21 19 26 68 69 68 66 66 66 69 71 71 70 70 70 69 68 69 70 70 70
25 26 26 26 25 27 25 28 29 29 28 25 28 24 25 25 25 25 25 25 25 22 20 23 23 21 56 68 68 66 68 70 70 71 70 70 68 68 68 69 69 68 68 68
27 27 27 27 27 28 26 28 27 26 28 26 25 26 24 25 24 25 26 26 26 25 21 19 20 23 27 68 69 69 68 70 65 64 67 70 68 69 68 68 66 66 66 65
28 32 32 32 31 31 30 29 28 28 27 25 25 24 21 20 22 23 25 26 26 25 24 18 19 25 27 60 70 70 70 68 62 62 62 68 69 68 67 66 66 66 65 65
33 33 33 31 28 35 36 35 28 23 21 22 24 24 24 26 26 27 25 26 25 25 23 21 17 19 26 62 69 69 69 69 67 64 68 69 68 68 67 66 66 65 65 64
29 28 32 32 29 31 36 36 30 22 21 22 28 25 27 32 30 30 30 30 30 30 23 21 20 21 26 59 68 69 69 69 69 68 68 67 65 69 68 67 66 65 65 63
32 31 34 33 30 30 34 32 38 32 34 30 27 26 27 27 29 32 32 31 30 31 28 22 20 20 35 50 64 69 69 69 68 68 69 68 68 69 68 66 66 64 63 61
36 30 31 31 33 30 29 32 31 34 24 22 24 25 26 30 32 35 35 37 37 28 25 21 24 24 50 53 64 69 69 69 68 68 68 67 66 68 67 66 64 62 61 57
37 36 29 32 31 27 28 34 34 35 33 24 20 21 34 31 35 36 38 38 39 35 27 38 40 33 48 63 67 69 69 68 68 67 67 68 67 66 64 62 60 59 58 55
36 36 30 27 28 29 28 28 34 30 25 33 32 29 34 38 39 39 40 40 41 44 39 38 41 40 62 65 68 68 68 68 68 67 66 67 66 63 61 59 59 57 54 54
38 33 28 27 27 35 33 33 34 36 35 29 28 27 36 35 36 39 39 42 44 45 43 42 41 46 58 66 68 67 67 67 66 66 65 63 62 61 60 58 57 53 53 53
41 33 31 27 26 31 32 32 32 33 31 28 30 31 33 33 34 37 41 44 44 45 43 43 48 51 51 63 65 65 66 66 66 63 62 61 60 59 57 56 53 50 48 47
39 33 34 33 32 32 32 32 33 34 33 30 29 30 32 33 33 39 39 44 44 43 44 44 50 53 53 62 63 64 65 64 63 61 59 59 58 56 55 51 47 46 45 43
39 33 35 33 32 30 30 36 36 37 36 33 31 31 39 37 37 43 44 47 44 44 48 55 58 60 60 61 63 64 62 61 60 59 58 57 55 53 52 48 44 41 39 37
32 32 32 28 30 30 31 32 33 34 35 38 34 37 40 40 44 44 45 47 48 48 50 57 59 59 59 60 61 60 59 59 58 57 56 55 53 51 48 43 39 35 32 30
32 32 33 29 30 18 34 33 33 34 35 38 37 38 39 39 40 43 48 49 49 50 54 57 58 58 58 58 57 57 57 56 55 55 54 53 52 48 44 40 37 32 29 29
38 34 31 28 27 28 33 32 33 33 33 38 37 37 37 39 40 43 49 50 52 52 54 58 57 57 57 56 56 56 56 55 55 54 54 52 50 48 44 39 35 31 30 29
39 35 32 30 26 23 32 34 35 36 30 37 37 37 38 38 35 39 47 50 52 52 53 58 57 57 57 57 57 55 54 54 53 54 53 52 50 48 45 43 38 34 33 31
30 28 24 28 27 33 35 35 36 28 30 36 38 39 43 38 40 44 50 51 55 57 57 58 56 55 56 56 55 54 53 53 54 53 52 50 49 46 43 38 35 30 28 29
30 27 23 25 25 21 36 35 30 35 36 37 40 43 44 44 45 48 50 53 55 55 57 56 55 55 55 54 53 52 52 53 53 52 50 48 46 42 37 35 34 35 27 23
30 32 27 28 24 32 37 37 39 39 38 41 42 44 46 46 47 49 51 53 55 55 55 55 55 53 53 53 52 52 52 52 50 48 45 42 42 42 42 41 38 29 21 19
36 37 32 31 33 35 35 38 39 39 39 43 44 45 46 46 47 50 51 51 52 52 52 52 52 51 51 51 51 51 49 45 42 37 35 34 33 33 33 34 33 28 22 20
34 34 33 32 33 34 37 37 39 39 42 43 44 45 46 47 48 49 49 50 50 50 51 51 50 49 48 46 44 45 43 40 34 32 30 28 27 26 25 27 26 23 23 23
33 32 30 28 35 35 35 38 39 40 42 43 44 45 47 48 48 48 48 49 50 50 50 50 46 44 43 41 40 38 36 33 29 26 24 24 22 21 20 21 25 33 32 32

GFSCGP_sfc_dewp_171.txt.gz
Dewpoint
24 21 21 21 25 24 25 25 27 28 31 32 31 30 29 28 23 21 22 22 23 23 24 24 26 53 68 68 68 68 67 67 67 67 66 66 64 66 68 68 67 67 68 70
23 21 23 24 24 24 25 26 26 29 32 31 31 28 28 27 25 24 23 23 23 23 24 27 26 50 67 67 68 66 65 63 67 68 69 69 68 68 67 68 68 67 70 70
21 22 24 24 26 25 25 26 27 27 30 30 28 27 27 28 25 25 25 26 26 25 25 27 22 47 66 66 66 68 67 67 68 68 70 69 69 70 68 68 68 68 70 70
24 26 26 27 27 26 25 27 27 29 29 26 27 24 26 27 27 26 26 26 25 26 26 24 23 24 65 67 66 68 65 65 67 69 68 68 68 67 68 69 68 69 69 67
26 27 27 27 28 29 28 29 28 27 26 26 26 26 25 26 25 25 27 27 27 27 27 26 23 23 45 67 67 67 65 64 67 69 69 69 68 68 69 68 67 66 65 65
30 30 30 31 31 34 35 34 30 29 27 26 25 26 22 23 23 23 24 26 26 26 27 27 24 23 29 57 67 66 65 66 68 70 68 66 68 68 67 66 66 65 65 64
33 32 33 31 29 31 32 33 28 24 24 23 24 25 25 25 25 24 24 26 27 27 26 26 24 20 28 47 67 67 65 67 66 67 65 68 68 67 66 66 65 64 64 63
29 25 32 33 30 30 30 32 27 22 22 21 28 23 23 27 27 27 28 30 31 31 31 30 25 22 24 50 65 68 67 65 63 63 63 67 68 66 66 67 66 65 64 62
30 29 30 30 30 31 32 32 35 32 31 27 26 27 29 29 31 31 33 33 34 36 36 32 26 23 25 50 64 67 68 66 62 62 64 67 67 66 66 66 66 65 63 61
33 30 31 30 33 30 30 32 31 34 24 21 23 26 26 29 30 35 34 36 38 39 39 36 28 25 34 43 61 67 68 68 64 62 66 67 68 66 66 66 65 63 61 57
34 34 30 32 31 27 28 31 35 35 32 24 21 21 29 31 33 35 35 36 37 39 41 40 37 40 39 45 51 66 68 68 67 66 66 66 67 67 66 63 61 59 57 55
36 36 30 28 30 30 30 28 33 29 25 31 30 26 30 35 38 36 38 38 37 40 42 43 38 42 46 51 59 67 68 68 67 68 66 67 66 64 62 60 58 57 54 55
38 34 28 26 25 33 31 34 37 36 34 29 26 25 35 36 35 34 35 39 40 43 42 43 42 45 46 59 65 67 68 67 67 66 66 65 62 61 60 58 56 55 56 54
41 34 32 28 29 32 32 32 32 34 29 26 26 26 29 30 32 34 35 37 41 43 43 43 45 48 48 55 66 66 66 67 66 66 64 62 60 59 58 56 56 54 52 49
39 33 34 35 35 33 32 31 32 33 34 31 30 31 30 33 35 39 37 37 43 44 45 45 46 50 52 56 63 65 66 66 65 62 60 59 58 57 55 53 52 51 47 45
39 33 35 33 34 34 32 31 35 32 34 34 37 35 39 41 40 40 42 45 44 44 46 48 50 56 54 60 62 63 63 63 61 59 57 56 53 52 51 49 48 43 41 40
33 32 30 25 31 30 29 33 30 30 32 35 35 36 38 37 38 39 39 41 44 47 47 49 53 57 59 61 61 61 61 60 58 56 54 53 52 50 48 47 43 36 34 35
33 32 32 28 28 11 31 34 31 30 33 37 35 37 38 38 39 39 40 41 44 49 50 53 58 59 60 60 60 59 59 57 55 54 52 51 48 47 44 41 36 32 32 32
36 34 29 27 26 25 34 35 34 31 31 37 35 37 37 39 40 39 41 46 49 52 50 53 57 57 58 57 57 57 56 55 53 52 51 49 47 43 41 37 35 30 28 28
39 37 32 28 25 23 30 32 34 35 29 36 36 35 36 38 35 38 42 46 50 52 51 55 56 56 55 55 55 54 53 53 52 50 48 47 44 40 37 33 29 28 26 26
31 29 25 25 26 27 34 34 34 26 29 36 36 36 39 39 41 41 43 45 51 52 51 56 55 53 54 54 53 52 52 52 52 51 48 45 43 40 38 32 27 26 26 26
30 27 22 26 23 22 35 34 30 34 37 37 37 39 41 43 45 46 46 50 53 53 55 56 55 55 55 55 54 52 51 51 50 49 46 43 41 36 31 31 26 24 23 23
31 32 29 30 26 32 33 35 39 39 37 38 39 41 43 44 46 48 50 53 54 54 55 55 54 54 54 54 53 51 51 50 49 47 43 35 33 33 30 23 21 21 21 21
37 37 32 31 32 32 33 37 38 39 38 39 42 43 44 45 47 50 51 52 53 53 53 53 53 52 52 52 51 51 50 48 45 42 40 38 37 33 25 22 21 21 22 22
35 34 33 32 33 34 36 36 38 39 39 41 43 44 45 47 48 49 49 50 51 52 52 52 51 50 50 48 46 44 43 42 39 39 38 35 31 27 25 25 24 22 24 24
34 33 31 28 36 34 35 38 38 39 39 42 44 44 47 48 48 49 49 49 47 46 47 46 45 45 44 43 42 42 41 39 37 35 33 30 25 21 22 24 27 34 33 33

GFSCGP_sfc_dewp_174.txt.gz
Dewpoint
24 22 20 21 24 24 23 23 23 25 27 29 29 30 31 32 31 26 25 25 25 25 26 27 27 31 56 67 66 67 67 68 67 67 64 65 63 65 66 67 67 66 68 70
22 21 22 23 23 23 23 24 24 26 28 30 29 29 30 30 30 29 28 28 26 26 26 27 28 31 62 67 67 67 67 67 67 67 67 67 65 67 67 68 68 68 70 70
20 20 24 23 23 25 25 25 25 25 27 29 29 27 29 29 29 29 28 27 26 27 27 28 27 30 57 67 67 67 68 67 67 67 68 68 69 69 68 68 67 70 70 69
21 23 24 25 27 27 25 27 27 27 27 25 28 24 26 27 27 28 27 28 28 28 28 28 27 28 39 66 67 67 67 66 67 67 68 67 66 66 68 68 69 70 69 68
25 27 27 27 27 29 28 33 32 30 28 26 26 26 25 28 26 27 28 28 28 29 28 28 27 27 28 54 66 67 67 66 67 68 69 68 68 68 68 68 68 66 66 65
29 32 29 29 31 32 34 32 29 29 27 26 26 26 24 24 24 25 26 26 28 29 29 29 30 30 28 34 66 67 67 66 67 68 69 68 68 68 67 66 66 66 65 65
32 32 33 31 30 31 29 28 19 19 25 23 25 26 26 26 26 25 24 24 27 32 29 29 28 26 28 29 52 66 66 65 66 68 68 68 68 68 66 66 65 64 64 63
29 24 30 32 29 29 29 28 21 17 20 20 28 24 23 27 29 29 29 28 32 35 33 33 33 30 25 28 40 66 65 64 66 68 67 68 67 67 67 66 65 64 63 63
28 28 32 30 30 30 30 31 31 23 26 26 24 25 28 29 31 32 32 37 37 38 39 39 38 32 28 29 41 64 66 65 66 65 67 67 67 67 66 66 66 65 64 62
32 28 30 32 33 31 30 33 23 33 24 20 22 25 26 27 30 34 34 34 35 37 39 40 40 37 33 33 43 62 66 65 65 65 67 67 66 65 65 66 65 64 62 59
33 34 29 32 30 27 28 29 33 34 31 24 21 21 28 30 31 34 35 36 36 37 38 40 41 41 41 38 46 61 66 66 64 64 66 66 66 66 65 64 63 62 59 57
35 35 30 28 29 31 30 29 33 29 27 31 27 25 29 34 35 37 37 37 37 38 39 42 43 43 44 45 43 58 65 67 63 64 66 66 66 65 64 63 60 59 56 56
37 34 26 23 26 33 31 32 33 34 34 29 26 24 36 35 34 35 34 35 37 37 37 41 43 44 45 48 49 55 64 67 64 65 65 66 65 62 60 59 58 57 56 55
38 34 31 26 26 32 33 35 35 34 29 27 29 28 28 30 32 32 38 42 43 42 39 42 44 45 47 50 55 54 65 67 66 65 66 64 61 59 58 57 56 56 55 53
39 33 34 33 34 34 33 33 33 30 32 30 32 33 35 37 39 40 40 40 41 42 45 45 46 46 47 49 52 61 64 66 66 66 64 61 59 57 56 54 53 53 51 50
39 33 35 31 32 33 32 31 31 31 35 33 32 33 39 39 39 39 39 39 40 40 43 47 47 49 50 52 54 63 65 65 65 62 59 57 56 55 53 51 50 50 49 48
34 32 28 24 28 28 26 33 32 31 30 32 31 35 36 36 37 37 39 39 39 40 42 43 48 49 50 54 60 61 63 62 59 57 55 54 52 50 49 49 48 48 47 45
34 32 32 27 28 11 30 36 34 32 32 34 35 35 37 38 39 39 39 39 40 41 42 45 50 51 53 57 59 61 59 56 55 53 52 50 49 47 46 45 45 44 44 43
39 34 30 24 22 23 32 35 34 31 29 35 35 35 35 38 38 38 41 43 42 43 46 50 51 52 57 59 59 57 55 54 52 51 49 47 46 46 46 44 44 42 41 38
39 37 32 28 23 20 31 33 34 34 27 36 36 35 35 36 32 36 41 44 45 46 49 51 52 57 57 58 57 55 54 52 50 49 48 48 47 46 43 42 40 40 39 34
28 30 28 24 25 26 33 34 34 23 26 36 37 36 36 34 37 41 43 45 48 48 51 54 56 55 56 55 54 53 52 49 48 47 46 45 45 42 40 39 39 37 36 33
30 28 23 26 23 18 34 33 28 30 37 37 37 37 37 39 41 43 45 47 49 50 53 54 53 53 54 53 51 49 47 47 45 44 43 41 40 38 37 35 32 32 30 28
30 33 30 29 28 32 35 33 35 38 37 37 37 38 39 41 42 44 45 50 52 54 53 53 52 52 51 50 48 46 46 46 44 42 40 39 38 37 34 30 26 25 26 27
37 37 32 32 32 33 34 35 38 37 37 39 39 39 41 43 45 48 52 53 53 53 53 53 52 51 50 50 48 47 44 43 41 40 39 38 36 32 25 24 25 25 27 27
36 34 33 33 32 36 35 36 37 37 38 39 40 41 44 46 48 46 45 52 52 52 53 53 51 50 48 48 46 44 44 43 41 39 37 35 32 25 25 26 26 25 28 28
35 33 31 30 35 35 35 37 38 38 39 40 41 42 45 47 46 45 44 46 49 50 50 47 46 45 44 44 45 44 43 41 37 34 32 27 23 24 25 26 29 34 32 32